Roanoke, VA

7:45 AM EDT on July 30, 2016 (GMT -0400)
Roanoke Regional-Woodrum

Weather History for KROA - March, 2014

Change the Weather History Date:

Saturday, March 1, 2014

  Actual Average Record
Temperature  
Mean Temperature 37 °F 43 °F  
Max Temperature 51 °F 53 °F 76 °F (1972)
Min Temperature 22 °F 33 °F 10 °F (1980)
Degree Days  
Heating Degree Days 28 22  
Month to date heating degree days 28 22  
Since 1 July heating degree days 3430 3227  
Cooling Degree Days 0 0  
Month to date cooling degree days 0 0  
Year to date cooling degree days 0 0  
Moisture  
Dew Point 13 °F    
Average Humidity 45    
Maximum Humidity 61    
Minimum Humidity 29    
Precipitation  
Precipitation 0.00 in 0.10 in 0.80 in (1969)
Month to date precipitation 0.00 0.10  
Year to date precipitation 6.28 5.91  
Snow  
Snow 0.00 in - - ()
Month to date snowfall 0.0  
Since 1 July snowfall 22.4  
Snow Depth 0.00 in    
Sea Level Pressure  
Sea Level Pressure 30.30 in    
Wind  
Wind Speed 3 mph (SE)    
Max Wind Speed 10 mph    
Max Gust Speed -    
Visibility 10 miles    
Events      
T = Trace of Precipitation, MM = Missing Value Source: NWS Daily Summary

Daily Weather History Graph

Daily Weather History Graph

Search for Another Location

Airport or City:

Trip Planner

Search our weather history database for the weather conditions in past years. The results will help you decide how hot, cold, wet, or windy it might be!

Date:

Astronomy

Mar. 01, 2014 Rise Set
Actual Time 6:51 AM EST 6:13 PM EST
Civil Twilight 6:24 AM EST 6:40 PM EST
Nautical Twilight 5:54 AM EST 7:10 PM EST
Astronomical Twilight 5:24 AM EST 7:40 PM EST
Moon 6:45 AM EST (3/1) 6:57 PM EST (3/1)
Length of Visible Light 12h 15m
Length of Day
11h 22m
New Moon, 0% of the Moon is Illuminated
Mar 1
New Moon
Mar 8
First Quarter
Mar 16
Full
Mar 23
Last Quarter
Mar 30
New

Hourly Weather History & Observations

Time (EST) Temp. Windchill Dew Point Humidity Pressure Visibility Wind Dir Wind Speed Gust Speed Precip Events Conditions
12:54 AM 25.0 °F 18.1 °F 8.1 °F 49% 30.35 in 10.0 mi SE 5.8 mph - N/A   Clear
1:54 AM 25.0 °F 17.1 °F 7.0 °F 46% 30.34 in 10.0 mi SE 6.9 mph - N/A   Clear
2:54 AM 24.1 °F 18.2 °F 7.0 °F 48% 30.33 in 10.0 mi SE 4.6 mph - N/A   Scattered Clouds
3:54 AM 23.0 °F - 7.0 °F 50% 30.33 in 10.0 mi Calm Calm - N/A   Clear
4:54 AM 25.0 °F - 7.0 °F 46% 30.33 in 10.0 mi Calm Calm - N/A   Overcast
5:54 AM 24.1 °F - 7.0 °F 48% 30.34 in 10.0 mi Calm Calm - N/A   Scattered Clouds
6:54 AM 25.0 °F - 7.0 °F 46% 30.34 in 10.0 mi Calm Calm - N/A   Mostly Cloudy
7:54 AM 25.0 °F - 10.0 °F 53% 30.36 in 10.0 mi Calm Calm - N/A   Overcast
8:54 AM 27.0 °F - 8.1 °F 45% 30.38 in 10.0 mi Calm Calm - N/A   Mostly Cloudy
9:54 AM 32.0 °F 27.5 °F 8.1 °F 37% 30.38 in 10.0 mi Variable 4.6 mph - N/A   Scattered Clouds
10:54 AM 33.1 °F - 8.1 °F 35% 30.37 in 10.0 mi Calm Calm - N/A   Mostly Cloudy
11:54 AM 36.0 °F - 10.9 °F 36% 30.34 in 10.0 mi Calm Calm - N/A   Overcast
12:54 PM 41.0 °F 37.1 °F 12.9 °F 32% 30.30 in 10.0 mi Variable 5.8 mph - N/A   Overcast
1:54 PM 44.1 °F 40.8 °F 16.0 °F 32% 30.26 in 10.0 mi South 5.8 mph - N/A   Overcast
2:54 PM 48.0 °F - 18.0 °F 30% 30.23 in 10.0 mi SSE 3.5 mph - N/A   Mostly Cloudy
3:54 PM 50.0 °F - 19.0 °F 29% 30.22 in 10.0 mi SSE 5.8 mph - N/A   Mostly Cloudy
4:54 PM 50.0 °F - 19.9 °F 31% 30.21 in 10.0 mi East 8.1 mph - N/A   Partly Cloudy
5:54 PM 46.9 °F - 21.0 °F 36% 30.22 in 10.0 mi SE 4.6 mph - N/A   Partly Cloudy
6:54 PM 44.1 °F 39.5 °F 19.9 °F 38% 30.24 in 10.0 mi SE 8.1 mph - N/A   Clear
7:54 PM 43.0 °F 38.8 °F 19.9 °F 40% 30.24 in 10.0 mi ESE 6.9 mph - N/A   Clear
8:54 PM 42.1 °F 39.2 °F 21.0 °F 43% 30.24 in 10.0 mi ESE 4.6 mph - N/A   Clear
9:54 PM 42.1 °F - 21.0 °F 43% 30.25 in 10.0 mi Calm Calm - N/A   Clear
10:54 PM 34.0 °F 31.0 °F 21.0 °F 59% 30.25 in 10.0 mi NW 3.5 mph - N/A   Partly Cloudy
11:54 PM 37.0 °F 34.5 °F 23.0 °F 57% 30.24 in 10.0 mi NW 3.5 mph - N/A   Overcast